VE3KSR Weather Reports


Display with metric or nautical units.
time (UTC)temp
F
wind
direction
speed
MPH
gust
MPH
rain 1hr
in
rain 24hr
in
rain mn
in
humidity
%
barometer
mb
20180721032452 63 149 10.0 12.0 4.79 0.00 0.00 82 1010.6
20180721031952 63 150 13.0 16.0 4.79 0.00 0.00 82 1010.5
20180721031453 63 142 12.0 16.0 4.79 0.00 0.00 78 1010.4
20180721030952 63 149 12.0 15.0 4.79 0.00 0.00 80 1010.3
20180721030452 63 141 10.0 14.0 4.79 0.00 0.00 80 1010.3
20180721025952 63 153 10.0 12.0 4.79 0.00 0.00 80 1010.5
20180721025452 63 158 10.0 11.0 4.79 0.00 0.00 80 1010.5
20180721024954 63 170 9.0 12.0 4.79 0.00 0.00 80 1010.7
20180721024452 63 197 9.0 13.0 4.79 0.00 0.00 78 1010.9
20180721023952 63 180 9.0 14.0 4.79 0.00 0.00 77 1010.9
20180721023452 63 210 9.0 14.0 4.79 0.00 0.00 77 1010.8
20180721022954 63 194 11.0 16.0 4.79 0.00 0.00 77 1010.9
20180721022452 63 208 10.0 14.0 4.79 0.00 0.00 78 1011.0
20180721021955 64 203 9.0 12.0 4.79 0.00 0.00 78 1011.0
20180721021452 64 203 9.0 11.0 4.79 0.00 0.00 76 1011.0
20180721020952 64 203 9.0 14.0 4.79 0.00 0.00 76 1010.9
20180721020452 64 183 8.0 11.0 4.79 0.00 0.00 76 1010.8
20180721015952 63 183 9.0 11.0 4.79 0.00 0.00 76 1010.7
20180721015452 63 176 9.0 11.0 4.79 0.00 0.00 74 1010.7
20180721014953 64 158 10.0 11.0 4.79 0.00 0.00 66 1010.4
20180721014452 64 146 7.0 8.0 4.79 0.00 0.00 67 1010.4
20180721013952 64 155 6.0 7.0 4.79 0.00 0.00 68 1010.4
20180721013452 64 180 7.0 10.0 4.79 0.00 0.00 69 1010.3
20180721012952 64 181 10.0 14.0 4.79 0.00 0.00 68 1010.4
20180721012453 65 165 13.0 17.0 4.79 0.00 0.00 64 1010.6
20180721011952 65 200 15.0 20.0 4.79 0.00 0.00 60 1010.7
20180721011452 66 156 15.0 20.0 4.79 0.00 0.00 26 1010.6
20180721010954 66 174 17.0 23.0 4.79 0.00 0.00 10 1010.1
20180721010452 67 165 14.0 17.0 4.79 0.00 0.00 1 1010.0
20180721005955 67 153 11.0 14.0 4.79 0.00 0.00 5 1009.9
20180721005453 67 158 13.0 16.0 4.79 0.00 0.00 6 1010.0
20180721004952 67 145 12.0 14.0 4.79 0.00 0.00 6 1009.8
20180721004452 67 156 12.0 15.0 4.79 0.00 0.00 7 1009.9
20180721003954 67 155 11.0 12.0 4.79 0.00 0.00 8 1009.9
20180721003452 67 146 9.0 12.0 4.79 0.00 0.00 9 1010.0
20180721002453 67 172 12.0 16.0 4.79 0.00 0.00 17 1010.2
20180721001953 67 159 12.0 14.0 4.79 0.00 0.00 24 1010.1
20180721001452 67 179 11.0 14.0 4.79 0.00 0.00 6 1010.3
20180721000952 68 166 9.0 10.0 4.79 0.00 0.00 6 1010.2
20180721000453 68 173 10.0 13.0 4.79 0.00 0.00 5 1010.2
20180720235953 68 163 11.0 15.0 4.79 0.00 0.00 4 1010.1
20180720235453 68 177 10.0 13.0 4.79 0.00 0.00 4 1010.1
20180720234953 68 200 9.0 12.0 4.79 0.00 0.00 4 1010.2
20180720234453 68 195 8.0 11.0 4.79 0.00 0.00 4 1010.4
20180720233952 68 222 8.0 11.0 4.79 0.00 0.00 4 1010.4
20180720233453 68 197 12.0 16.0 4.79 0.00 0.00 4 1010.3
20180720232953 68 207 11.0 15.0 4.79 0.00 0.00 1 1010.5
20180720232453 68 197 12.0 15.0 4.79 0.00 0.00 0 1010.6
20180720231955 69 207 12.0 18.0 4.79 0.00 0.00 1 1010.5
20180720231453 70 167 12.0 18.0 4.79 0.00 0.00 5 1010.6
20180720230953 71 150 13.0 18.0 4.79 0.00 0.00 0 1010.6
20180720230453 72 165 14.0 19.0 4.79 0.00 0.00 0 1010.0
20180720225953 72 143 16.0 20.0 4.79 0.00 0.00 0 1009.9
20180720225453 72 156 14.0 20.0 4.79 0.00 0.00 0 1009.9
20180720224952 72 121 14.0 17.0 4.79 0.00 0.00 0 1009.9
20180720224453 72 139 15.0 21.0 4.79 0.00 0.00 0 1010.0
20180720223953 72 155 13.0 18.0 4.79 0.00 0.00 0 1009.9
20180720223453 72 149 14.0 18.0 4.79 0.00 0.00 0 1010.0
20180720222953 72 136 15.0 21.0 4.79 0.00 0.00 0 1009.9
20180720222453 72 159 14.0 19.0 4.79 0.00 0.00 0 1010.0
20180720221953 72 132 14.0 18.0 4.79 0.00 0.00 0 1010.1
20180720221453 72 146 16.0 22.0 4.79 0.00 0.00 0 1010.1
20180720220953 72 142 18.0 22.0 4.79 0.00 0.00 0 1010.1
20180720220453 72 156 18.0 24.0 4.79 0.00 0.00 0 1010.2
20180720215953 72 149 18.0 23.0 4.79 0.00 0.00 0 1010.2
20180720215453 72 143 20.0 25.0 4.79 0.00 0.00 0 1010.3
20180720214953 72 148 17.0 23.0 4.79 0.00 0.00 0 1010.3
20180720214454 72 143 15.0 20.0 4.79 0.00 0.00 0 1010.3
20180720213953 72 103 15.0 21.0 4.79 0.00 0.00 0 1010.4
20180720213453 72 138 15.0 21.0 4.79 0.00 0.00 0 1010.4
20180720212953 73 166 15.0 19.0 4.79 0.00 0.00 0 1010.5
20180720212453 73 143 15.0 21.0 4.79 0.00 0.00 0 1010.7
20180720211953 74 159 14.0 21.0 4.79 0.00 0.00 0 1010.7
20180720211453 74 174 16.0 23.0 4.79 0.00 0.00 0 1010.8
20180720210953 73 165 16.0 23.0 4.79 0.00 0.00 0 1010.6
20180720210453 74 203 17.0 26.0 4.79 0.00 0.00 0 1010.7
20180720205953 73 167 17.0 22.0 4.79 0.00 0.00 0 1010.9
20180720205453 73 177 19.0 26.0 4.79 0.00 0.00 0 1010.9
20180720204953 74 162 20.0 29.0 4.79 0.00 0.00 0 1010.7
20180720204454 74 173 20.0 26.0 4.79 0.00 0.00 0 1010.8
20180720203953 74 176 17.0 24.0 4.79 0.00 0.00 0 1010.9
20180720203453 74 167 18.0 27.0 4.79 0.00 0.00 0 1011.1
20180720202953 74 172 18.0 26.0 4.79 0.00 0.00 0 1011.0
20180720202453 74 163 18.0 25.0 4.79 0.00 0.00 0 1011.0
20180720201953 74 170 19.0 28.0 4.79 0.00 0.00 0 1011.1
20180720201454 73 174 17.0 22.0 4.79 0.00 0.00 0 1011.1
20180720200953 74 159 18.0 25.0 4.79 0.00 0.00 0 1011.1
20180720200453 73 184 19.0 26.0 4.79 0.00 0.00 0 1011.3
20180720195955 74 179 16.0 24.0 4.79 0.00 0.00 0 1011.3
20180720195454 74 172 13.0 20.0 4.79 0.00 0.00 0 1011.5
20180720193953 73 163 15.0 23.0 4.79 0.00 0.00 0 1011.9
20180720193453 74 139 17.0 23.0 4.79 0.00 0.00 0 1011.8
20180720192953 74 135 15.0 23.0 4.79 0.00 0.00 0 1011.9
20180720192455 73 174 15.0 22.0 4.79 0.00 0.00 0 1012.1
20180720191954 74 205 17.0 24.0 4.79 0.00 0.00 0 1012.1
20180720191454 74 180 18.0 24.0 4.79 0.00 0.00 0 1012.0
20180720190953 73 174 18.0 24.0 4.79 0.00 0.00 0 1012.2
20180720190456 74 191 16.0 25.0 4.79 0.00 0.00 0 1012.3
20180720185953 74 177 19.0 28.0 4.79 0.00 0.00 0 1012.3
20180720185453 74 204 19.0 26.0 4.79 0.00 0.00 0 1012.3
20180720184953 74 174 18.0 28.0 4.79 0.00 0.00 0 1012.4
20180720184456 74 177 17.0 26.0 4.79 0.00 0.00 0 1012.5
20180720183953 74 180 20.0 27.0 4.79 0.00 0.00 0 1012.5
20180720183454 74 160 20.0 25.0 4.79 0.00 0.00 0 1012.7
20180720182954 74 172 18.0 26.0 4.79 0.00 0.00 0 1012.7
20180720182453 73 169 19.0 26.0 4.79 0.00 0.00 0 1012.7
20180720181953 74 156 15.0 22.0 4.79 0.00 0.00 0 1012.9
20180720181454 73 177 19.0 26.0 4.79 0.00 0.00 0 1013.0
20180720180953 73 172 18.0 25.0 4.79 0.00 0.00 0 1012.9
20180720180453 73 170 19.0 25.0 4.79 0.00 0.00 0 1012.9
20180720175954 74 172 18.0 28.0 4.79 0.00 0.00 0 1013.0
20180720175453 73 179 13.0 20.0 4.79 0.00 0.00 0 1012.9
20180720174953 73 167 15.0 20.0 4.79 0.00 0.00 0 1013.1
20180720174453 73 138 16.0 22.0 4.79 0.00 0.00 0 1013.2
20180720173953 73 159 14.0 20.0 4.79 0.00 0.00 0 1013.3
20180720173453 74 160 11.0 20.0 4.79 0.00 0.00 0 1013.5
20180720172953 73 158 13.0 19.0 4.79 0.00 0.00 0 1013.5
20180720172453 72 183 14.0 19.0 4.79 0.00 0.00 0 1013.6
20180720171954 72 170 15.0 23.0 4.79 0.00 0.00 0 1013.6
20180720171454 72 160 15.0 19.0 4.79 0.00 0.00 0 1013.6
20180720170953 72 172 16.0 20.0 4.79 0.00 0.00 0 1013.8
20180720170453 73 152 17.0 22.0 4.79 0.00 0.00 0 1013.6
20180720165954 73 169 9.0 15.0 4.79 0.00 0.00 0 1013.7
20180720165453 72 177 16.0 23.0 4.79 0.00 0.00 0 1013.7
20180720164954 73 197 10.0 17.0 4.79 0.00 0.00 0 1013.8
20180720164455 73 173 16.0 23.0 4.79 0.00 0.00 0 1013.8
20180720163954 73 160 15.0 21.0 4.79 0.00 0.00 0 1013.8
20180720163455 72 163 17.0 25.0 4.79 0.00 0.00 0 1013.7
20180720162954 72 158 17.0 22.0 4.79 0.00 0.00 0 1013.8
20180720162454 72 111 14.0 23.0 4.79 0.00 0.00 0 1013.9
20180720161954 72 160 15.0 19.0 4.79 0.00 0.00 0 1013.9
20180720161454 73 201 11.0 16.0 4.79 0.00 0.00 0 1014.0
20180720160954 72 205 12.0 18.0 4.79 0.00 0.00 0 1014.0
20180720160454 72 170 18.0 22.0 4.79 0.00 0.00 0 1014.0
20180720155954 72 158 16.0 19.0 4.79 0.00 0.00 0 1014.1
20180720155454 72 162 13.0 17.0 4.79 0.00 0.00 0 1014.1
20180720154954 72 179 14.0 18.0 4.79 0.00 0.00 0 1014.2
20180720154455 71 159 19.0 24.0 4.79 0.00 0.00 0 1014.2
20180720153954 72 176 15.0 23.0 4.79 0.00 0.00 0 1014.1
20180720153455 71 177 15.0 21.0 4.79 0.00 0.00 0 1014.2
20180720152954 71 153 14.0 20.0 4.79 0.00 0.00 0 1014.5
20180720152454 71 163 15.0 18.0 4.79 0.00 0.00 0 1014.5
20180720151954 71 146 13.0 17.0 4.79 0.00 0.00 0 1014.4
20180720151454 70 160 14.0 18.0 4.79 0.00 0.00 0 1014.5
20180720150954 71 193 9.0 13.0 4.79 0.00 0.00 0 1014.6
20180720150455 70 146 13.0 17.0 4.79 0.00 0.00 0 1014.6
20180720145954 70 165 15.0 18.0 4.79 0.00 0.00 0 1014.6
20180720145454 70 128 12.0 17.0 4.79 0.00 0.00 0 1014.7
20180720144954 69 167 13.0 16.0 4.79 0.00 0.00 0 1014.8
20180720144454 69 159 12.0 17.0 4.79 0.00 0.00 0 1014.9
20180720143954 69 172 13.0 17.0 4.79 0.00 0.00 0 1014.9
20180720143454 69 212 14.0 20.0 4.79 0.00 0.00 0 1014.8
20180720142954 69 170 11.0 14.0 4.79 0.00 0.00 0 1014.9
20180720142454 68 172 15.0 19.0 4.79 0.00 0.00 0 1014.9
20180720141954 68 155 11.0 16.0 4.79 0.00 0.00 0 1015.0
20180720141454 64 176 11.0 17.0 4.79 0.00 0.00 0 1014.8
20180720140954 64 174 11.0 17.0 4.79 0.00 0.00 0 1015.0
20180720140454 64 156 10.0 17.0 4.79 0.00 0.00 0 1015.1
20180720135954 63 177 12.0 20.0 4.79 0.00 0.00 0 1015.1
20180720135454 63 204 9.0 16.0 4.79 0.00 0.00 0 1015.1
20180720134954 66 219 11.0 15.0 4.79 0.00 0.00 0 1015.2
20180720134455 66 210 10.0 15.0 4.79 0.00 0.00 0 1015.3
20180720133954 66 159 12.0 17.0 4.79 0.00 0.00 0 1015.5
20180720133454 65 186 11.0 17.0 4.79 0.00 0.00 0 1015.4
20180720132954 65 180 12.0 17.0 4.79 0.00 0.00 0 1015.4
20180720132454 64 166 13.0 19.0 4.79 0.00 0.00 0 1015.5
20180720131954 64 143 14.0 16.0 4.79 0.00 0.00 0 1015.5
20180720131454 61 143 13.0 17.0 4.79 0.00 0.00 0 1015.4
20180720130954 60 165 14.0 18.0 4.79 0.00 0.00 0 1015.4
20180720130455 65 159 13.0 17.0 4.79 0.00 0.00 0 1015.4
20180720125956 65 166 14.0 17.0 4.79 0.00 0.00 0 1015.6
20180720125454 64 160 13.0 17.0 4.79 0.00 0.00 0 1015.6
20180720124955 63 148 13.0 17.0 4.79 0.00 0.00 0 1015.6
20180720124456 63 152 12.0 16.0 4.79 0.00 0.00 0 1015.9
20180720123955 63 156 13.0 17.0 4.79 0.00 0.00 0 1015.8
20180720123454 63 152 11.0 14.0 4.79 0.00 0.00 0 1015.8
20180720122954 63 152 13.0 16.0 4.79 0.00 0.00 0 1016.0
20180720122454 63 152 13.0 15.0 4.79 0.00 0.00 0 1016.1
20180720121954 62 155 11.0 16.0 4.79 0.00 0.00 0 1016.3
20180720121454 62 162 11.0 14.0 4.79 0.00 0.00 0 1016.2
20180720120954 62 163 12.0 15.0 4.79 0.00 0.00 0 1016.2
20180720120612 62 152 10.0 15.0 4.79 0.00 0.00 0 1016.1
20180720120455 62 152 10.0 15.0 4.79 0.00 0.00 0 1016.1
20180720115954 62 156 11.0 16.0 4.79 0.00 0.00 0 1016.2
20180720115454 62 136 10.0 13.0 4.79 0.00 0.00 0 1016.1
20180720115040 61 159 11.0 16.0 4.79 0.00 0.00 0 1016.2
20180720114954 61 159 11.0 16.0 4.79 0.00 0.00 0 1016.2
20180720114457 61 139 11.0 16.0 4.79 0.00 0.00 0 1016.3
20180720113955 61 156 11.0 14.0 4.79 0.00 0.00 0 1016.3
20180720113454 61 124 12.0 17.0 4.79 0.00 0.00 0 1016.3
20180720112954 60 153 12.0 14.0 4.79 0.00 0.00 0 1016.4
20180720112456 60 150 10.0 13.0 4.79 0.00 0.00 0 1016.4
20180720112044 60 146 12.0 15.0 4.79 0.00 0.00 0 1016.2
20180720111954 60 146 12.0 15.0 4.79 0.00 0.00 0 1016.2
20180720111454 60 153 12.0 15.0 4.79 0.00 0.00 0 1016.3
20180720110954 59 142 11.0 14.0 4.79 0.00 0.00 0 1016.4
20180720110454 59 141 13.0 15.0 4.79 0.00 0.00 0 1016.2
20180720105954 60 143 13.0 16.0 4.79 0.00 0.00 0 1016.3
20180720105459 59 149 13.0 15.0 4.79 0.00 0.00 0 1016.3
20180720104955 59 143 13.0 15.0 4.79 0.00 0.00 0 1016.3
20180720104454 59 149 12.0 14.0 4.79 0.00 0.00 0 1016.4
20180720103955 59 139 13.0 15.0 4.79 0.00 0.00 0 1016.3
20180720103454 59 153 13.0 15.0 4.79 0.00 0.00 0 1016.3
20180720102955 59 150 12.0 14.0 4.79 0.00 0.00 0 1016.4
20180720102454 59 135 13.0 16.0 4.79 0.00 0.00 0 1016.1
20180720102223 59 148 13.0 15.0 4.79 0.00 0.00 0 1016.2
20180720101959 59 148 13.0 15.0 4.79 0.00 0.00 0 1016.2
20180720101455 59 143 13.0 16.0 4.79 0.00 0.00 0 1016.2
20180720100955 59 134 13.0 16.0 4.79 0.00 0.00 0 1016.2
20180720100455 59 143 13.0 17.0 4.79 0.00 0.00 0 1016.1
20180720095955 59 134 13.0 16.0 4.79 0.00 0.00 0 1016.0
20180720095454 59 142 13.0 16.0 4.79 0.00 0.00 0 1016.0
20180720094954 59 129 13.0 17.0 4.79 0.00 0.00 0 1016.1
20180720094455 59 134 14.0 16.0 4.79 0.00 0.00 0 1015.9
20180720093955 59 146 13.0 15.0 4.79 0.00 0.00 0 1016.0
20180720093454 59 146 14.0 16.0 4.79 0.00 0.00 0 1016.0
20180720092954 59 138 13.0 15.0 4.79 0.00 0.00 0 1016.1
20180720092454 59 136 14.0 15.0 4.79 0.00 0.00 0 1016.1
20180720091954 59 142 13.0 16.0 4.79 0.00 0.00 0 1015.9
20180720091455 59 135 13.0 15.0 4.79 0.00 0.00 0 1016.0
20180720091128 59 127 13.0 15.0 4.79 0.00 0.00 0 1016.0
20180720091049 59 127 13.0 15.0 4.79 0.00 0.00 0 1016.0
20180720090954 59 127 13.0 15.0 4.79 0.00 0.00 0 1016.0
20180720090455 59 142 13.0 15.0 4.79 0.00 0.00 0 1016.0
20180720085955 59 142 13.0 15.0 4.79 0.00 0.00 0 1016.0
20180720085456 60 149 13.0 15.0 4.79 0.00 0.00 0 1016.0
20180720084954 60 124 13.0 17.0 4.79 0.00 0.00 0 1016.1
20180720084454 60 153 13.0 16.0 4.79 0.00 0.00 0 1016.0
20180720083958 60 148 14.0 15.0 4.79 0.00 0.00 0 1016.0
20180720083454 59 142 13.0 17.0 4.79 0.00 0.00 0 1015.9
20180720082954 59 128 13.0 16.0 4.79 0.00 0.00 0 1015.9
20180720082455 59 138 13.0 16.0 4.79 0.00 0.00 0 1015.9
20180720081954 59 136 13.0 16.0 4.79 0.00 0.00 0 1015.9
20180720081455 60 131 13.0 16.0 4.79 0.00 0.00 0 1015.9
20180720080954 60 146 14.0 16.0 4.79 0.00 0.00 0 1016.1
20180720080455 60 153 13.0 17.0 4.79 0.00 0.00 0 1016.0
20180720075955 60 142 13.0 16.0 4.79 0.00 0.00 0 1016.1
20180720075454 60 145 14.0 17.0 4.79 0.00 0.00 0 1016.1
20180720074955 60 132 13.0 16.0 4.79 0.00 0.00 0 1016.1
20180720074454 60 148 14.0 17.0 4.79 0.00 0.00 0 1016.0
20180720073954 60 160 14.0 18.0 4.79 0.00 0.00 0 1016.1
20180720073455 60 138 13.0 17.0 4.79 0.00 0.00 0 1015.9
20180720072955 60 150 12.0 15.0 4.79 0.00 0.00 0 1015.8
20180720072456 61 155 13.0 17.0 4.79 0.00 0.00 0 1016.0
20180720071957 61 138 13.0 15.0 4.79 0.00 0.00 0 1016.0
20180720071454 61 153 14.0 19.0 4.79 0.00 0.00 0 1016.0
20180720070954 61 156 12.0 16.0 4.79 0.00 0.00 0 1016.0
20180720070454 61 143 14.0 16.0 4.79 0.00 0.00 0 1015.9
20180720065955 62 143 13.0 19.0 4.79 0.00 0.00 0 1015.9
20180720065455 62 146 13.0 18.0 4.79 0.00 0.00 0 1015.8
20180720064955 62 149 12.0 15.0 4.79 0.00 0.00 0 1015.9
20180720064457 62 138 12.0 15.0 4.79 0.00 0.00 0 1015.8
20180720063956 62 150 12.0 15.0 4.79 0.00 0.00 0 1015.8
20180720063454 63 155 12.0 17.0 4.79 0.00 0.00 0 1015.8
20180720062955 63 142 13.0 15.0 4.79 0.00 0.00 0 1015.7
20180720062455 63 165 12.0 15.0 4.79 0.00 0.00 0 1015.7
20180720061954 63 159 11.0 14.0 4.79 0.00 0.00 0 1015.7
20180720061457 62 156 12.0 17.0 4.79 0.00 0.00 0 1015.8
20180720060955 62 160 11.0 15.0 4.79 0.00 0.00 0 1015.7
20180720060455 62 162 11.0 14.0 4.79 0.00 0.00 0 1015.9
20180720055955 61 160 11.0 14.0 4.79 0.00 0.00 0 1015.9
20180720055455 61 167 11.0 13.0 4.79 0.00 0.00 0 1015.9
20180720054955 62 160 11.0 14.0 4.79 0.00 0.00 0 1015.9
20180720054455 62 173 10.0 13.0 4.79 0.00 0.00 0 1015.9
20180720053955 62 174 11.0 14.0 4.79 0.00 0.00 0 1016.0
20180720053455 62 174 11.0 13.0 4.79 0.00 0.00 0 1015.9
20180720052955 62 167 11.0 14.0 4.79 0.00 0.00 0 1016.0
20180720052455 63 158 12.0 14.0 4.79 0.00 0.00 0 1015.9
20180720051955 63 158 11.0 15.0 4.79 0.00 0.00 0 1016.0
20180720051455 63 169 12.0 16.0 4.79 0.00 0.00 0 1015.8
20180720050956 63 155 12.0 16.0 4.79 0.00 0.00 0 1015.9
20180720050455 63 162 12.0 15.0 4.79 0.00 0.00 0 1015.6
20180720045955 64 163 11.0 15.0 4.79 0.00 0.00 0 1015.7
20180720045455 64 159 11.0 14.0 4.79 0.00 0.00 0 1015.8
20180720045000 64 165 12.0 15.0 4.79 0.00 0.00 0 1015.7
20180720044456 64 159 11.0 14.0 4.79 0.00 0.00 0 1015.6
20180720043955 64 159 11.0 14.0 4.79 0.00 0.00 0 1015.5
20180720043456 64 170 11.0 13.0 4.79 0.00 0.00 0 1015.6
20180720042955 64 172 11.0 13.0 4.79 0.00 0.00 0 1015.6
20180720042456 64 155 10.0 12.0 4.79 0.00 0.00 0 1015.7
20180720041955 64 167 10.0 12.0 4.79 0.00 0.00 0 1015.7
20180720041456 64 169 10.0 12.0 4.79 0.00 0.00 0 1015.5
20180720040955 64 166 9.0 11.0 4.79 0.00 0.00 0 1015.5
20180720040456 64 163 10.0 12.0 4.79 0.00 0.00 0 1015.8
20180720035955 65 173 9.0 11.0 4.79 0.00 0.00 0 1015.8
20180720035455 65 176 9.0 11.0 4.79 0.00 0.00 0 1015.8
20180720034955 64 177 9.0 11.0 4.79 0.00 0.00 0 1015.9
20180720034455 64 181 8.0 10.0 4.79 0.00 0.00 0 1015.8
20180720033955 64 193 7.0 10.0 4.79 0.00 0.00 0 1015.6
20180720033457 64 179 8.0 10.0 4.79 0.00 0.00 0 1015.7
20180720032955 64 205 7.0 10.0 4.79 0.00 0.00 0 1015.7